Richmond, VA

6:20 AM EST on November 19, 2017 (GMT -0500)
Richmond International

Weather History for KRIC - February, 2013

Change the Weather History Date:

Wednesday, February 6, 2013

  Actual Average Record
Temperature  
Mean Temperature 44 °F 39 °F  
Max Temperature 57 °F 49 °F 79 °F (2008)
Min Temperature 31 °F 29 °F 3 °F (1966)
Degree Days  
Heating Degree Days 21 26  
Month to date heating degree days 166 156  
Since 1 July heating degree days 2204 2417  
Cooling Degree Days 0 0  
Month to date cooling degree days 0 0  
Year to date cooling degree days 1 0  
Moisture  
Dew Point 30 °F    
Average Humidity 60    
Maximum Humidity 89    
Minimum Humidity 30    
Precipitation  
Precipitation 0.00 in 0.10 in 2.17 in (1896)
Month to date precipitation T 0.60  
Year to date precipitation 5.33 3.64  
Snow  
Snow 0.00 in 0.20 in 4.10 in (2010)
Month to date snowfall T 0.9  
Since 1 July snowfall 3.2 7.1  
Snow Depth 0.00 in    
Sea Level Pressure  
Sea Level Pressure 30.15 in    
Wind  
Wind Speed 5 mph (NE)    
Max Wind Speed 14 mph    
Max Gust Speed 16 mph    
Visibility 10 miles    
Events      
T = Trace of Precipitation, MM = Missing Value Source: NWS Daily Summary

Daily Weather History Graph

Daily Weather History Graph

Search for Another Location

Airport or City:

Trip Planner

Search our weather history database for the weather conditions in past years. The results will help you decide how hot, cold, wet, or windy it might be!

Date:

Astronomy

Feb. 06, 2013 Rise Set
Actual Time 7:08 AM EST 5:39 PM EST
Civil Twilight 6:40 AM EST 6:06 PM EST
Nautical Twilight 6:09 AM EST 6:37 PM EST
Astronomical Twilight 5:39 AM EST 7:08 PM EST
Moon 3:47 AM EST (2/6) 1:57 PM EST (2/6)
Length of Visible Light 11h 25m
Length of Day
10h 31m
Waning Crescent, 17% of the Moon is Illuminated
Feb 6
Waning Crescent
Feb 10
New
Feb 17
First Quarter
Feb 25
Full
Mar 4
Last Quarter

Hourly Weather History & Observations

Time (EST) Temp. Windchill Dew Point Humidity Pressure Visibility Wind Dir Wind Speed Gust Speed Precip Events Conditions
12:54 AM 48.0 °F - 30.9 °F 52% 29.95 in 10.0 mi WSW 8.1 mph - N/A   Scattered Clouds
1:54 AM 43.0 °F 41.3 °F 30.9 °F 62% 29.95 in 10.0 mi SW 3.5 mph - N/A   Partly Cloudy
2:54 AM 44.1 °F 41.5 °F 30.9 °F 60% 29.96 in 10.0 mi West 4.6 mph - N/A   Partly Cloudy
3:54 AM 36.0 °F 31.1 °F 30.0 °F 79% 29.99 in 10.0 mi NNW 5.8 mph - N/A   Clear
4:54 AM 37.0 °F - 30.0 °F 76% 30.01 in 10.0 mi Calm Calm - N/A   Clear
5:54 AM 35.1 °F - 30.0 °F 82% 30.05 in 10.0 mi Calm Calm - N/A   Mostly Cloudy
6:54 AM 30.9 °F 26.2 °F 27.0 °F 85% 30.07 in 10.0 mi North 4.6 mph - N/A   Partly Cloudy
7:54 AM 34.0 °F - 30.0 °F 85% 30.12 in 8.0 mi Calm Calm - N/A   Partly Cloudy
8:54 AM 39.9 °F - 30.9 °F 70% 30.16 in 9.0 mi Calm Calm - N/A   Partly Cloudy
9:54 AM 46.0 °F 43.1 °F 32.0 °F 58% 30.17 in 10.0 mi ENE 5.8 mph - N/A   Partly Cloudy
10:54 AM 50.0 °F - 33.1 °F 52% 30.19 in 10.0 mi NNE 6.9 mph - N/A   Partly Cloudy
11:54 AM 51.1 °F - 32.0 °F 48% 30.18 in 10.0 mi Variable 4.6 mph - N/A   Scattered Clouds
12:54 PM 54.0 °F - 32.0 °F 43% 30.17 in 10.0 mi North 8.1 mph - N/A   Partly Cloudy
1:54 PM 55.0 °F - 30.9 °F 40% 30.18 in 10.0 mi North 9.2 mph - N/A   Scattered Clouds
2:54 PM 55.0 °F - 28.9 °F 37% 30.17 in 10.0 mi Calm Calm - N/A   Partly Cloudy
3:54 PM 57.0 °F - 27.0 °F 32% 30.19 in 10.0 mi North 8.1 mph - N/A   Partly Cloudy
4:54 PM 54.0 °F - 28.0 °F 37% 30.19 in 10.0 mi North 6.9 mph - N/A   Partly Cloudy
5:54 PM 50.0 °F - 28.9 °F 44% 30.22 in 10.0 mi ENE 5.8 mph - N/A   Clear
6:54 PM 45.0 °F 40.6 °F 33.1 °F 63% 30.25 in 10.0 mi East 8.1 mph - N/A   Clear
7:54 PM 42.1 °F 37.1 °F 32.0 °F 67% 30.30 in 10.0 mi East 8.1 mph - N/A   Clear
8:54 PM 39.9 °F 37.8 °F 30.0 °F 68% 30.34 in 10.0 mi East 3.5 mph - N/A   Clear
9:54 PM 37.9 °F 35.5 °F 30.0 °F 73% 30.35 in 10.0 mi ENE 3.5 mph - N/A   Clear
10:54 PM 36.0 °F 32.1 °F 28.9 °F 76% 30.35 in 10.0 mi East 4.6 mph - N/A   Clear
11:54 PM 36.0 °F 30.3 °F 28.0 °F 73% 30.36 in 10.0 mi East 6.9 mph - N/A   Clear